{"data":{"norad_id":61773,"intl_designator":"2024-199AQ","name":"SITRO-AIS 47","alt_names":[],"object_type":"PAYLOAD","status":"ACTIVE","operator":null,"country":"CIS","launch_date":"2024-11-04","launch_site_code":"VOSTO","launch_vehicle":null,"mission":null,"orbit_class":"UNKNOWN","rcs_meters":null,"size_class":null,"mass_kg":null,"dimensions":null,"purposes":[],"wikipedia_slug":null,"has_3d_model":false,"image_url":null,"decayed_at":null,"tle_current":{"epoch":"2026-05-25T03:21:07.626240Z","epoch_age_seconds":66151,"freshness":"FRESH","line1":"1 61773U 24199AQ  26145.13967160  .00048750  00000+0  68736-3 0  9996","line2":"2 61773  97.2951  20.7025 0007245  31.0805 329.0877 15.56438241130852","mean_motion":15.56438241,"eccentricity":0.0007245,"inclination_deg":97.2951,"raan_deg":20.7025,"arg_perigee_deg":31.0805,"mean_anomaly_deg":329.0877,"bstar":0.00068736,"rev_number":13085,"period_min":92.518929570557,"perigee_km":393.06576684358,"apogee_km":402.88435321857,"semimajor_km":6776.1120600311,"source":"CELESTRAK","updated_at":"2026-05-25T13:38:02.559673Z"}}}